COSMOS 2529 (757)

Last updated on Fri Dec 19 2025 00:03:21 GMT+0000 (Coordinated Universal Time)

1 43687U 18086A 25352.51651229 .00000109 00000+0 00000+0 0 9997 2 43687 64.2922 198.6932 0007046 253.6593 106.3450 2.13102105 55434
UTC large
Height (km)
Speed (km/s)
/
Latitude / Longitude
Inclination (degrees)
Orbital Period (minutes)
Azimuth
Elevation
Range (km)
Doppler Factor

Next 0 passes for location: London (51.5072 / 0.1276)

Sorry there are no passes over London.